Time,TemperatureF,DewpointF,PressureIn,WindDirection,WindDirectionDegrees,WindSpeedMPH,WindSpeedGustMPH,Humidity,HourlyPrecipIn,Conditions,Clouds,dailyrainin,SolarRadiationWatts/m^2,SoftwareType,DateUTC
2013-04-25 00:10:00,52.8,45.8,30.15,SSW,198,0.0,0.0,77,0.00,,,0.00,0,Wunderground v.1.15,2013-04-25 07:10:00,
2013-04-25 00:20:00,52.7,46.0,30.15,SSW,198,0.0,0.0,78,0.00,,,0.00,0,Wunderground v.1.15,2013-04-25 07:20:00,
2013-04-25 00:26:00,52.7,46.0,30.15,SSW,198,0.0,0.0,78,0.00,,,0.00,0,Wunderground v.1.15,2013-04-25 07:26:00,
2013-04-25 00:40:00,52.6,45.9,30.15,SSW,198,0.0,0.0,78,0.00,,,0.00,0,Wunderground v.1.15,2013-04-25 07:40:00,
2013-04-25 00:50:00,52.5,46.2,30.15,SSW,198,0.0,0.0,79,0.00,,,0.00,0,Wunderground v.1.15,2013-04-25 07:50:00,
2013-04-25 00:56:00,52.5,45.5,30.15,SSW,198,0.0,0.0,77,0.00,,,0.00,0,Wunderground v.1.15,2013-04-25 07:56:00,
2013-04-25 01:00:00,52.5,45.5,30.15,SSW,198,0.0,0.0,77,0.00,,,0.00,0,Wunderground v.1.15,2013-04-25 08:00:00,
2013-04-25 01:10:00,52.5,45.5,30.15,SSW,198,0.0,0.0,77,0.00,,,0.00,0,Wunderground v.1.15,2013-04-25 08:10:00,
2013-04-25 01:20:00,52.4,45.1,30.15,SSW,198,0.0,0.0,76,0.00,,,0.00,0,Wunderground v.1.15,2013-04-25 08:20:00,
2013-04-25 01:30:00,52.3,45.0,30.15,SSW,198,0.0,0.0,76,0.00,,,0.00,0,Wunderground v.1.15,2013-04-25 08:30:00,
2013-04-25 01:40:00,52.2,45.2,30.15,SSW,198,0.0,0.0,77,0.00,,,0.00,0,Wunderground v.1.15,2013-04-25 08:40:00,
2013-04-25 01:45:00,52.1,45.1,30.15,SSW,198,0.0,0.0,77,0.00,,,0.00,0,Wunderground v.1.15,2013-04-25 08:45:00,
2013-04-25 02:00:00,51.8,45.2,30.15,SSW,198,0.0,0.0,78,0.00,,,0.00,0,Wunderground v.1.15,2013-04-25 09:00:00,
2013-04-25 02:10:00,51.7,45.7,30.15,SSW,198,0.0,0.0,80,0.00,,,0.00,0,Wunderground v.1.15,2013-04-25 09:10:00,
2013-04-25 02:20:00,51.6,46.0,30.15,SSW,198,0.0,0.0,81,0.00,,,0.00,0,Wunderground v.1.15,2013-04-25 09:20:00,
2013-04-25 02:30:00,51.5,46.2,30.15,SSW,198,0.0,0.0,82,0.00,,,0.00,0,Wunderground v.1.15,2013-04-25 09:30:00,
2013-04-25 02:40:00,51.5,46.5,30.14,SSW,198,0.0,0.0,83,0.00,,,0.00,0,Wunderground v.1.15,2013-04-25 09:40:00,
2013-04-25 02:50:00,51.4,46.4,30.14,SSW,198,0.0,0.0,83,0.00,,,0.00,0,Wunderground v.1.15,2013-04-25 09:50:00,
2013-04-25 03:00:00,51.3,46.3,30.14,SSW,198,0.0,0.0,83,0.00,,,0.00,0,Wunderground v.1.15,2013-04-25 10:00:00,
2013-04-25 03:10:00,51.4,46.4,30.14,SSW,198,0.0,0.0,83,0.00,,,0.00,0,Wunderground v.1.15,2013-04-25 10:10:00,
2013-04-25 03:20:00,51.1,46.1,30.14,SSW,198,0.0,0.0,83,0.00,,,0.00,0,Wunderground v.1.15,2013-04-25 10:20:00,
2013-04-25 03:30:00,51.1,45.8,30.14,SSW,198,0.0,0.0,82,0.00,,,0.00,0,Wunderground v.1.15,2013-04-25 10:30:00,
2013-04-25 03:40:00,50.9,45.9,30.14,SSW,195,0.0,0.0,83,0.00,,,0.00,0,Wunderground v.1.15,2013-04-25 10:40:00,
2013-04-25 03:50:00,50.8,45.5,30.14,SSW,195,0.0,0.0,82,0.00,,,0.00,0,Wunderground v.1.15,2013-04-25 10:50:00,
2013-04-25 04:00:00,50.6,45.6,30.13,SSW,195,0.0,0.0,83,0.00,,,0.00,0,Wunderground v.1.15,2013-04-25 11:00:00,
2013-04-25 04:10:00,50.5,45.5,30.14,SSW,195,0.0,0.0,83,0.00,,,0.00,0,Wunderground v.1.15,2013-04-25 11:10:00,
2013-04-25 04:20:00,50.5,45.8,30.14,SSW,195,0.0,0.0,84,0.00,,,0.00,0,Wunderground v.1.15,2013-04-25 11:20:00,
2013-04-25 04:30:00,50.6,45.9,30.14,SSW,195,0.0,0.0,84,0.00,,,0.00,0,Wunderground v.1.15,2013-04-25 11:30:00,
2013-04-25 04:40:00,50.6,45.6,30.14,SSW,195,0.0,0.0,83,0.00,,,0.00,0,Wunderground v.1.15,2013-04-25 11:40:00,
2013-04-25 04:50:00,50.5,45.5,30.13,SSW,195,0.0,0.0,83,0.00,,,0.00,0,Wunderground v.1.15,2013-04-25 11:50:00,
2013-04-25 05:00:00,50.4,45.4,30.14,SSW,195,0.0,0.0,83,0.00,,,0.00,0,Wunderground v.1.15,2013-04-25 12:00:00,
2013-04-25 05:10:00,50.5,45.5,30.14,SSW,195,0.0,0.0,83,0.00,,,0.00,0,Wunderground v.1.15,2013-04-25 12:10:00,
2013-04-25 05:20:00,50.5,45.5,30.14,SSW,195,0.0,0.0,83,0.00,,,0.00,0,Wunderground v.1.15,2013-04-25 12:20:00,
2013-04-25 05:30:00,50.3,45.3,30.14,SSW,195,0.0,0.0,83,0.00,,,0.00,0,Wunderground v.1.15,2013-04-25 12:30:00,
2013-04-25 05:40:00,50.2,45.6,30.13,SSW,195,0.0,0.0,84,0.00,,,0.00,0,Wunderground v.1.15,2013-04-25 12:40:00,
2013-04-25 05:45:00,50.3,45.6,30.13,SSW,195,0.0,0.0,84,0.00,,,0.00,0,Wunderground v.1.15,2013-04-25 12:45:00,
2013-04-25 06:00:00,50.3,46.0,30.14,SSW,195,0.0,0.0,85,0.00,,,0.00,0,Wunderground v.1.15,2013-04-25 13:00:00,
2013-04-25 06:10:00,50.3,46.0,30.14,SSW,195,0.0,0.0,85,0.00,,,0.00,0,Wunderground v.1.15,2013-04-25 13:10:00,
2013-04-25 06:20:00,50.4,46.1,30.14,SSW,195,0.0,0.0,85,0.00,,,0.00,0,Wunderground v.1.15,2013-04-25 13:20:00,
2013-04-25 06:30:00,50.6,46.3,30.14,SSW,195,0.0,0.0,85,0.00,,,0.00,0,Wunderground v.1.15,2013-04-25 13:30:00,
2013-04-25 06:40:00,50.5,45.5,30.14,SSW,195,0.0,0.0,83,0.00,,,0.00,0,Wunderground v.1.15,2013-04-25 13:40:00,
2013-04-25 06:50:00,50.4,45.1,30.14,SSW,195,0.0,0.0,82,0.00,,,0.00,0,Wunderground v.1.15,2013-04-25 13:50:00,
2013-04-25 07:00:00,50.4,44.8,30.14,SSW,195,0.0,0.0,81,0.00,,,0.00,0,Wunderground v.1.15,2013-04-25 14:00:00,
2013-04-25 07:10:00,50.4,44.8,30.15,SSW,195,0.0,0.0,81,0.00,,,0.00,0,Wunderground v.1.15,2013-04-25 14:10:00,
2013-04-25 07:20:00,50.4,44.8,30.15,SSW,195,0.0,0.0,81,0.00,,,0.00,0,Wunderground v.1.15,2013-04-25 14:20:00,
2013-04-25 07:30:00,50.4,44.5,30.15,SSW,195,0.0,0.0,80,0.00,,,0.00,0,Wunderground v.1.15,2013-04-25 14:30:00,
2013-04-25 07:40:00,50.5,44.6,30.15,SSW,195,0.0,0.0,80,0.00,,,0.00,0,Wunderground v.1.15,2013-04-25 14:40:00,
2013-04-25 07:50:00,50.7,44.8,30.15,SSW,195,0.0,0.0,80,0.00,,,0.00,0,Wunderground v.1.15,2013-04-25 14:50:00,
2013-04-25 08:00:00,50.8,44.9,30.15,SSW,195,0.0,0.0,80,0.00,,,0.00,0,Wunderground v.1.15,2013-04-25 15:00:00,
2013-04-25 08:10:00,51.1,45.1,30.15,SSW,195,0.0,0.0,80,0.00,,,0.00,0,Wunderground v.1.15,2013-04-25 15:10:00,
2013-04-25 08:20:00,51.4,45.8,30.15,SSW,195,0.0,0.0,81,0.00,,,0.00,0,Wunderground v.1.15,2013-04-25 15:20:00,
2013-04-25 08:30:00,51.6,45.6,30.16,SSW,195,0.0,0.0,80,0.00,,,0.00,0,Wunderground v.1.15,2013-04-25 15:30:00,
2013-04-25 08:40:00,51.9,45.9,30.16,SSW,195,0.0,0.0,80,0.00,,,0.00,0,Wunderground v.1.15,2013-04-25 15:40:00,
2013-04-25 08:50:00,52.2,45.9,30.16,SSW,202,0.0,0.0,79,0.00,,,0.00,0,Wunderground v.1.15,2013-04-25 15:50:00,
2013-04-25 09:00:00,52.5,45.8,30.16,SSW,202,0.0,0.0,78,0.00,,,0.00,0,Wunderground v.1.15,2013-04-25 16:00:00,
2013-04-25 09:10:00,52.8,45.8,30.16,SSW,202,0.0,0.0,77,0.00,,,0.00,0,Wunderground v.1.15,2013-04-25 16:10:00,
2013-04-25 09:20:00,53.1,46.1,30.17,SSW,202,0.0,0.0,77,0.00,,,0.00,0,Wunderground v.1.15,2013-04-25 16:20:00,
2013-04-25 09:30:00,53.5,46.5,30.17,SSW,202,0.0,0.0,77,0.00,,,0.00,0,Wunderground v.1.15,2013-04-25 16:30:00,
2013-04-25 09:40:00,53.7,46.7,30.17,SSW,208,0.0,0.0,77,0.00,,,0.00,0,Wunderground v.1.15,2013-04-25 16:40:00,
2013-04-25 09:50:00,54.1,47.4,30.17,SSW,199,0.0,0.0,78,0.00,,,0.00,0,Wunderground v.1.15,2013-04-25 16:50:00,
2013-04-25 10:00:00,54.4,47.7,30.17,South,186,0.0,0.0,78,0.00,,,0.00,0,Wunderground v.1.15,2013-04-25 17:00:00,
2013-04-25 10:10:00,55.0,47.9,30.17,NNE,12,1.0,3.0,77,0.00,,,0.00,0,Wunderground v.1.15,2013-04-25 17:10:00,
2013-04-25 10:20:00,55.4,48.7,30.17,NNE,12,0.0,3.0,78,0.00,,,0.00,0,Wunderground v.1.15,2013-04-25 17:20:00,
2013-04-25 10:25:00,55.8,48.7,30.17,NNE,12,0.0,3.0,77,0.00,,,0.00,0,Wunderground v.1.15,2013-04-25 17:25:00,
2013-04-25 10:40:00,56.4,48.9,30.18,North,9,0.0,3.0,76,0.00,,,0.00,0,Wunderground v.1.15,2013-04-25 17:40:00,
2013-04-25 10:50:00,56.6,48.8,30.18,North,8,0.0,3.0,75,0.00,,,0.00,0,Wunderground v.1.15,2013-04-25 17:50:00,
2013-04-25 11:00:00,57.2,48.6,30.18,East,91,0.0,3.0,73,0.00,,,0.00,0,Wunderground v.1.15,2013-04-25 18:00:00,
2013-04-25 11:10:00,57.3,48.7,30.18,SW,224,0.0,2.0,73,0.00,,,0.00,0,Wunderground v.1.15,2013-04-25 18:10:00,
2013-04-25 11:20:00,57.8,49.2,30.18,North,359,0.0,2.0,73,0.00,,,0.00,0,Wunderground v.1.15,2013-04-25 18:20:00,
2013-04-25 11:30:00,58.1,49.1,30.18,North,0,0.0,2.0,72,0.00,,,0.00,0,Wunderground v.1.15,2013-04-25 18:30:00,
2013-04-25 11:40:00,58.5,49.5,30.19,North,10,0.0,3.0,72,0.00,,,0.00,0,Wunderground v.1.15,2013-04-25 18:40:00,
2013-04-25 11:45:00,58.9,50.3,30.19,North,10,0.0,3.0,73,0.00,,,0.00,0,Wunderground v.1.15,2013-04-25 18:45:00,
2013-04-25 12:00:00,59.9,50.8,30.19,NNE,14,0.0,3.0,72,0.00,,,0.00,0,Wunderground v.1.15,2013-04-25 19:00:00,
2013-04-25 12:10:00,60.6,50.0,30.19,ESE,106,0.0,4.0,68,0.00,,,0.00,0,Wunderground v.1.15,2013-04-25 19:10:00,
2013-04-25 12:20:00,60.8,49.8,30.19,ESE,111,0.0,4.0,67,0.00,,,0.00,0,Wunderground v.1.15,2013-04-25 19:20:00,
2013-04-25 12:30:00,60.6,50.0,30.20,ESE,111,0.0,4.0,68,0.00,,,0.00,0,Wunderground v.1.15,2013-04-25 19:30:00,
2013-04-25 12:50:00,62.0,50.9,30.20,SSE,163,0.0,4.0,67,0.00,,,0.00,0,Wunderground v.1.15,2013-04-25 19:50:00,
2013-04-25 12:55:00,62.4,50.9,30.19,SSE,164,0.0,4.0,66,0.00,,,0.00,0,Wunderground v.1.15,2013-04-25 19:55:00,
2013-04-25 13:10:00,63.1,50.7,30.20,NE,40,0.0,2.0,64,0.00,,,0.00,0,Wunderground v.1.15,2013-04-25 20:10:00,
2013-04-25 13:20:00,63.5,51.1,30.19,SE,144,0.0,2.0,64,0.00,,,0.00,0,Wunderground v.1.15,2013-04-25 20:20:00,
2013-04-25 13:30:00,64.6,52.6,30.19,SE,144,0.0,2.0,65,0.00,,,0.00,0,Wunderground v.1.15,2013-04-25 20:30:00,
2013-04-25 13:40:00,65.0,51.7,30.19,SE,139,0.0,2.0,62,0.00,,,0.00,0,Wunderground v.1.15,2013-04-25 20:40:00,
2013-04-25 13:45:00,65.2,52.3,30.19,SE,139,0.0,2.0,63,0.00,,,0.00,0,Wunderground v.1.15,2013-04-25 20:45:00,
2013-04-25 13:55:00,65.7,52.8,30.20,South,170,0.0,2.0,63,0.00,,,0.00,0,Wunderground v.1.15,2013-04-25 20:55:00,
2013-04-25 14:10:00,65.7,52.3,30.19,South,173,0.0,1.0,62,0.00,,,0.00,0,Wunderground v.1.15,2013-04-25 21:10:00,
2013-04-25 14:20:00,66.0,52.2,30.20,South,173,0.0,1.0,61,0.00,,,0.00,0,Wunderground v.1.15,2013-04-25 21:20:00,
2013-04-25 14:30:00,66.0,51.7,30.19,South,173,0.0,1.0,60,0.00,,,0.00,0,Wunderground v.1.15,2013-04-25 21:30:00,
2013-04-25 14:40:00,66.1,51.4,30.20,South,173,0.0,4.0,59,0.00,,,0.00,0,Wunderground v.1.15,2013-04-25 21:40:00,
2013-04-25 14:50:00,65.9,51.6,30.19,South,173,0.0,4.0,60,0.00,,,0.00,0,Wunderground v.1.15,2013-04-25 21:50:00,
2013-04-25 15:00:00,65.4,51.1,30.19,South,173,0.0,4.0,60,0.00,,,0.00,0,Wunderground v.1.15,2013-04-25 22:00:00,
2013-04-25 15:10:00,64.7,50.9,30.19,South,173,0.0,2.0,61,0.00,,,0.00,0,Wunderground v.1.15,2013-04-25 22:10:00,
2013-04-25 15:20:00,63.9,50.6,30.19,South,173,0.0,2.0,62,0.00,,,0.00,0,Wunderground v.1.15,2013-04-25 22:20:00,
2013-04-25 15:30:00,63.0,50.2,30.19,South,172,0.0,2.0,63,0.00,,,0.00,0,Wunderground v.1.15,2013-04-25 22:30:00,
2013-04-25 15:40:00,62.3,50.4,30.19,South,172,0.0,1.0,65,0.00,,,0.00,0,Wunderground v.1.15,2013-04-25 22:40:00,
2013-04-25 15:50:00,61.6,48.9,30.19,South,172,0.0,1.0,63,0.00,,,0.00,0,Wunderground v.1.15,2013-04-25 22:50:00,
2013-04-25 16:00:00,61.3,49.4,30.18,South,171,0.0,1.0,65,0.00,,,0.00,0,Wunderground v.1.15,2013-04-25 23:00:00,
2013-04-25 16:10:00,61.1,50.1,30.19,South,172,0.0,0.0,67,0.00,,,0.00,0,Wunderground v.1.15,2013-04-25 23:10:00,
2013-04-25 16:20:00,60.9,48.6,30.18,SSE,167,0.0,0.0,64,0.00,,,0.00,0,Wunderground v.1.15,2013-04-25 23:20:00,
2013-04-25 16:30:00,60.8,49.0,30.18,South,181,0.0,0.0,65,0.00,,,0.00,0,Wunderground v.1.15,2013-04-25 23:30:00,
2013-04-25 16:40:00,60.7,48.4,30.18,SE,130,0.0,1.0,64,0.00,,,0.00,0,Wunderground v.1.15,2013-04-25 23:40:00,
2013-04-25 16:50:00,60.8,48.5,30.18,SSW,200,0.0,1.0,64,0.00,,,0.00,0,Wunderground v.1.15,2013-04-25 23:50:00,
2013-04-25 17:00:00,60.8,48.5,30.18,SSW,195,0.0,1.0,64,0.00,,,0.00,0,Wunderground v.1.15,2013-04-26 00:00:00,
2013-04-25 17:10:00,60.8,48.5,30.18,ENE,65,0.0,1.0,64,0.00,,,0.00,0,Wunderground v.1.15,2013-04-26 00:10:00,
2013-04-25 17:20:00,60.9,49.1,30.17,ESE,122,0.0,1.0,65,0.00,,,0.00,0,Wunderground v.1.15,2013-04-26 00:20:00,
2013-04-25 17:30:00,61.1,48.4,30.18,ESE,105,0.0,1.0,63,0.00,,,0.00,0,Wunderground v.1.15,2013-04-26 00:30:00,
2013-04-25 17:40:00,61.6,48.4,30.17,ESE,121,0.0,1.0,62,0.00,,,0.00,0,Wunderground v.1.15,2013-04-26 00:40:00,
2013-04-25 17:45:00,61.5,48.4,30.17,ESE,121,0.0,1.0,62,0.00,,,0.00,0,Wunderground v.1.15,2013-04-26 00:45:00,
2013-04-25 18:00:00,61.2,50.6,30.18,NE,41,0.0,1.0,68,0.00,,,0.00,0,Wunderground v.1.15,2013-04-26 01:00:00,
2013-04-25 18:10:00,60.9,50.7,30.17,NE,41,0.0,2.0,69,0.00,,,0.00,0,Wunderground v.1.15,2013-04-26 01:10:00,
2013-04-25 18:20:00,60.6,50.0,30.17,NE,41,0.0,2.0,68,0.00,,,0.00,0,Wunderground v.1.15,2013-04-26 01:20:00,
2013-04-25 18:30:00,60.4,50.6,30.18,NE,41,0.0,2.0,70,0.00,,,0.00,0,Wunderground v.1.15,2013-04-26 01:30:00,
2013-04-25 18:40:00,60.3,50.1,30.17,NE,41,0.0,1.0,69,0.00,,,0.00,0,Wunderground v.1.15,2013-04-26 01:40:00,
2013-04-25 18:50:00,60.4,51.3,30.17,NE,41,0.0,1.0,72,0.00,,,0.00,0,Wunderground v.1.15,2013-04-26 01:50:00,
2013-04-25 19:00:00,60.3,50.5,30.17,NE,40,0.0,1.0,70,0.00,,,0.00,0,Wunderground v.1.15,2013-04-26 02:00:00,
2013-04-25 19:10:00,60.0,50.6,30.18,NE,40,0.0,1.0,71,0.00,,,0.00,0,Wunderground v.1.15,2013-04-26 02:10:00,
2013-04-25 19:30:00,59.5,50.5,30.17,NE,40,0.0,1.0,72,0.00,,,0.00,0,Wunderground v.1.15,2013-04-26 02:30:00,
2013-04-25 19:40:00,59.2,50.5,30.17,NE,40,0.0,0.0,73,0.00,,,0.00,0,Wunderground v.1.15,2013-04-26 02:40:00,
2013-04-25 19:45:00,59.1,50.8,30.18,NE,40,0.0,0.0,74,0.00,,,0.00,0,Wunderground v.1.15,2013-04-26 02:45:00,
2013-04-25 20:10:00,58.3,50.0,30.18,NE,40,0.0,0.0,74,0.00,,,0.00,0,Wunderground v.1.15,2013-04-26 03:10:00,
2013-04-25 20:20:00,57.9,50.0,30.18,NE,40,0.0,0.0,75,0.00,,,0.00,0,Wunderground v.1.15,2013-04-26 03:20:00,
2013-04-25 20:30:00,57.6,49.7,30.18,NE,40,0.0,0.0,75,0.00,,,0.00,0,Wunderground v.1.15,2013-04-26 03:30:00,
2013-04-25 20:40:00,57.4,49.5,30.18,NE,40,0.0,0.0,75,0.00,,,0.00,0,Wunderground v.1.15,2013-04-26 03:40:00,
2013-04-25 20:50:00,57.1,49.6,30.19,NE,40,0.0,0.0,76,0.00,,,0.00,0,Wunderground v.1.15,2013-04-26 03:50:00,
2013-04-25 21:00:00,56.9,49.8,30.19,NE,40,0.0,0.0,77,0.00,,,0.00,0,Wunderground v.1.15,2013-04-26 04:00:00,
2013-04-25 21:10:00,56.7,49.6,30.20,NE,40,0.0,0.0,77,0.00,,,0.00,0,Wunderground v.1.15,2013-04-26 04:10:00,
2013-04-25 21:20:00,56.6,49.5,30.20,NE,40,0.0,0.0,77,0.00,,,0.00,0,Wunderground v.1.15,2013-04-26 04:20:00,
2013-04-25 21:30:00,56.3,49.2,30.20,NE,40,0.0,0.0,77,0.00,,,0.00,0,Wunderground v.1.15,2013-04-26 04:30:00,
2013-04-25 21:40:00,56.1,49.0,30.20,NE,40,0.0,0.0,77,0.00,,,0.00,0,Wunderground v.1.15,2013-04-26 04:40:00,
2013-04-25 21:45:00,56.0,49.2,30.20,NE,40,0.0,0.0,78,0.00,,,0.00,0,Wunderground v.1.15,2013-04-26 04:45:00,
2013-04-25 21:50:00,55.9,49.1,30.20,NE,40,0.0,0.0,78,0.00,,,0.00,0,Wunderground v.1.15,2013-04-26 04:50:00,
2013-04-25 22:00:00,55.8,49.0,30.20,NE,40,0.0,0.0,78,0.00,,,0.00,0,Wunderground v.1.15,2013-04-26 05:00:00,
2013-04-25 22:10:00,55.6,49.2,30.20,NE,40,0.0,0.0,79,0.00,,,0.00,0,Wunderground v.1.15,2013-04-26 05:10:00,
2013-04-25 22:20:00,55.5,48.8,30.20,NE,40,0.0,0.0,78,0.00,,,0.00,0,Wunderground v.1.15,2013-04-26 05:20:00,
2013-04-25 22:30:00,55.4,49.0,30.21,NE,40,0.0,0.0,79,0.00,,,0.00,0,Wunderground v.1.15,2013-04-26 05:30:00,
2013-04-25 22:40:00,55.2,48.5,30.21,NE,40,0.0,0.0,78,0.00,,,0.00,0,Wunderground v.1.15,2013-04-26 05:40:00,
2013-04-25 22:50:00,55.1,48.4,30.20,NE,40,0.0,0.0,78,0.00,,,0.00,0,Wunderground v.1.15,2013-04-26 05:50:00,
2013-04-25 23:00:00,55.0,48.3,30.20,NE,40,0.0,0.0,78,0.00,,,0.00,0,Wunderground v.1.15,2013-04-26 06:00:00,
2013-04-25 23:10:00,54.8,48.4,30.20,NE,40,0.0,0.0,79,0.00,,,0.00,0,Wunderground v.1.15,2013-04-26 06:10:00,
2013-04-25 23:15:00,54.7,48.0,30.20,NE,40,0.0,0.0,78,0.00,,,0.00,0,Wunderground v.1.15,2013-04-26 06:15:00,
2013-04-25 23:30:00,54.3,47.9,30.20,NE,40,0.0,0.0,79,0.00,,,0.00,0,Wunderground v.1.15,2013-04-26 06:30:00,
2013-04-25 23:40:00,54.2,47.8,30.21,NE,40,0.0,0.0,79,0.00,,,0.00,0,Wunderground v.1.15,2013-04-26 06:40:00,
2013-04-25 23:45:00,54.2,47.8,30.20,NE,40,0.0,0.0,79,0.00,,,0.00,0,Wunderground v.1.15,2013-04-26 06:45:00,
2013-04-25 23:55:00,54.0,47.6,30.21,NE,40,0.0,0.0,79,0.00,,,0.00,0,Wunderground v.1.15,2013-04-26 06:55:00,